Tracking 34794 objects as of 19-Jul-2026
HD Live streaming from Space Station
objects crossing your sky now

STARLINK-11323

Track STARLINK-11323 now!
10-day predictions
STARLINK-11323 is classified as:


NORAD ID: 61533
Int'l Code: 2024-184B
Perigee: 366.3 km
Apogee: 367.2 km
Inclination: 53.2 °
Period: 91.7 minutes
Semi major axis: 6737 km
RCS: Unknown
Launch date: October 15, 2024
Source: United States (US)
Launch site: AIR FORCE WESTERN TEST RANGE (AFWTR)
Your satellite tracking list
Your tracking list is empty




NASA's NSSDC Master Catalog

Two Line Element Set (TLE):
1 61533U 24184B   26199.69539174 -.00009757  00000-0 -75637-4 0  9990
2 61533  53.1586 310.4261 0000676  19.2828 340.8216 15.69754775100993
Source of the keplerian elements: AFSPC